CAPE
489 666 983 1094 1532 1363 1281 1616 1452 1075 1854 1377 1713 1749 1775 1880 1977 1821 2261 2134 1865 1593 1106 903 607 435 633 419 688 1312 1785 1073 1337 1747 999 1283 1232 1703 1690 1379 928 1169 1504
663 772 1020 1085 1175 1618 1425 1392 1317 1429 1826 1872 1776 1618 1761 1853 1460 1915 1944 2291 1800 1738 1980 1501 1431 1404 1527 923 825 1392 1610 1611 1604 2058 1465 1548 1791 1443 1327 1240 1350 875 544
880 817 1020 1194 1176 1162 1427 1485 1392 1482 1690 1977 1805 1677 1686 1829 1811 1655 1930 1792 1685 1586 1786 1952 1975 1957 1761 1493 1465 1680 1955 2115 2026 1852 1900 1383 1698 1866 1665 688 437 473 519
1007 851 990 1151 1340 1210 1034 1268 1388 1357 1751 1717 1802 1724 1686 1836 2014 2010 1995 1925 1699 1444 1655 1944 2029 1903 1928 1983 1692 1756 1844 1764 1872 1888 2143 2312 2064 1911 446 495 943 921 1040
1072 995 935 1150 1145 1185 1124 932 1073 1224 1612 1636 1733 1719 1848 1980 2192 2039 1977 1968 1841 1718 1771 1844 1943 2066 2268 2229 2139 2162 2056 1991 2161 2166 2052 1693 1653 1383 950 780 1039 874 1075
1005 1143 1049 1170 1332 1379 1290 1174 1054 932 1145 1708 1440 1728 1856 2291 2236 2248 2203 2016 1906 1774 1780 1769 1727 1769 1689 1740 1116 630 1203 1728 1935 2051 1901 1615 1372 1220 1226 1143 922 792 1004
1065 1089 1006 1080 1241 1356 1326 1166 1203 1173 905 1161 1772 1724 1784 1852 2176 1937 1626 946 1285 1280 1468 1677 1661 1867 1774 1578 1836 1494 312 92 161 925 973 1060 1023 965 759 870 576 414 573
894 1044 952 939 1193 1123 1206 1123 1137 1243 1317 987 1282 1776 1958 1667 1697 1281 285 90 144 174 243 524 946 1264 1433 1386 1227 1113 1204 1148 889 220 24 465 476 537 340 625 641 563 218
620 562 759 1112 1327 1048 1035 1037 1041 753 858 1515 1457 1142 1259 670 129 7 85 146 282 433 630 742 776 1050 1122 744 253 723 852 934 1054 868 414 114 189 64 28 51 271 185 210
6 146 424 327 378 491 846 1028 1031 1194 1078 914 555 137 236 187 29 2 29 61 124 205 485 812 860 37 11 0 0 0 18 258 353 432 628 843 373 273 7 0 222 372 201
190 140 277 415 96 107 72 134 251 394 272 6 2 28 128 12 0 10 2 2 46 101 288 118 277 21 0 0 1 1 11 98 31 124 270 237 334 562 600 138 35 181 185
201 190 133 191 217 106 78 4 54 143 23 2 25 27 99 0 1 1 1 1 0 6 5 0 0 0 0 0 0 0 1 1 1 1 2 93 199 363 571 421 36 25 24
102 74 59 82 147 291 96 141 19 41 113 10 3 4 0 1 1 1 1 1 1 1 0 0 0 0 2 0 0 70 1 1 5 26 113 234 368 451 321 1 1 0 1
61 10 0 96 128 246 404 281 180 61 14 22 7 45 16 62 1 0 0 0 0 0 1 0 0 0 0 1 4 118 42 4 9 103 439 516 622 856 796 156 1 1 0
0 0 0 0 66 5 1 0 0 0 1 148 47 8 2 0 0 0 0 0 0 1 1 0 0 17 7 0 0 0 0 0 0 1 11 3 34 121 468 338 45 1 0
0 0 0 0 1 0 0 0 1 1 0 0 0 0 0 0 0 1 1 1 1 1 0 0 0 0 1 1 1 0 0 0 1 3 1 0 1 1 8 126 138 16 1
0 0 0 0 0 0 0 0 0 0 1 0 0 0 0 0 0 2 1 1 1 0 0 0 0 0 0 0 0 0 0 0 0 0 1 3 4 3 2 4 131 49 11
0 0 0 0 0 0 0 0 0 0 0 0 0 0 0 0 0 0 1 0 0 1 0 0 0 0 0 0 0 0 0 0 0 1 1 2 2 2 3 3 3 149 77
0 0 0 0 0 0 0 0 0 0 0 0 0 0 0 0 0 0 0 0 0 0 0 0 0 0 0 0 0 0 1 1 1 1 0 1 2 2 1 3 4 2 40
0 0 0 0 0 0 0 0 0 0 0 0 0 0 0 0 0 0 0 0 0 0 0 0 0 0 0 0 0 0 0 0 0 0 0 1 1 1 2 2 4 5 3
0 0 0 0 0 0 0 0 0 0 0 0 0 0 0 0 0 0 0 0 0 0 0 0 0 0 0 0 0 0 0 0 0 0 0 0 0 1 1 2 2 4 3
0 0 0 0 0 0 0 0 0 0 0 0 0 0 0 0 0 0 0 0 0 0 0 0 0 0 0 0 0 0 0 0 0 0 0 0 0 0 1 2 3 2 4
0 0 0 0 0 0 0 0 0 0 0 0 0 0 0 0 0 0 0 0 0 0 0 0 0 0 0 0 0 0 0 0 0 0 0 0 0 0 0 0 0 1 3
0 0 0 0 0 0 0 0 0 0 0 0 0 0 0 0 0 0 0 0 0 0 0 0 0 0 0 0 0 0 0 0 0 0 0 0 0 0 0 0 0 0 0
0 0 0 0 0 0 0 0 0 0 0 0 0 0 0 0 0 0 0 0 0 0 0 0 0 0 0 0 0 0 0 0 0 0 0 0 0 0 0 0 0 0 0
0 0 0 0 0 0 0 0 0 0 0 0 0 0 0 0 0 0 0 0 0 0 0 0 0 0 0 0 0 0 0 0 0 0 0 0 0 0 0 0 0 0 0
CIN
-186 -132 -85 -94 -67 -69 -87 -94 -93 -95 -81 -124 -133 -101 -91 -83 -85 -69 -54 -56 -66 -89 -145 -174 -225 -278 -264 -329 -285 -188 -112 -208 -143 -165 -293 -233 -256 -155 -168 -197 -248 -187 -134
-191 -158 -108 -105 -100 -79 -91 -90 -104 -80 -90 -119 -143 -114 -89 -70 -94 -70 -58 -30 -54 -53 -60 -90 -103 -107 -117 -194 -210 -130 -120 -111 -99 -78 -192 -187 -149 -196 -180 -189 -167 -189 -210
-163 -171 -132 -101 -111 -93 -105 -96 -105 -102 -82 -104 -98 -89 -81 -72 -75 -82 -68 -59 -51 -61 -63 -60 -63 -76 -82 -107 -112 -99 -94 -91 -89 -75 -70 -179 -151 -146 -141 -239 -228 -229 -218
-150 -159 -142 -124 -114 -117 -150 -114 -102 -128 -97 -93 -91 -80 -82 -71 -64 -62 -66 -69 -76 -75 -71 -67 -66 -73 -63 -64 -94 -85 -88 -91 -84 -81 -56 -47 -84 -117 -295 -223 -141 -160 -168
-160 -163 -187 -141 -138 -133 -156 -169 -134 -120 -98 -105 -88 -83 -68 -65 -61 -66 -68 -57 -68 -70 -77 -79 -77 -79 -55 -60 -59 -53 -69 -70 -56 -38 -47 -69 -95 -100 -149 -176 -114 -158 -140
-191 -167 -171 -163 -151 -143 -140 -152 -166 -166 -111 -99 -101 -75 -73 -79 -38 -31 -44 -58 -61 -66 -63 -67 -72 -66 -81 -68 -119 -210 -139 -69 -43 -27 -32 -43 -76 -82 -100 -98 -109 -103 -57
-216 -195 -188 -185 -166 -156 -152 -159 -153 -137 -151 -116 -77 -83 -79 -84 -49 -38 -51 -125 -91 -86 -76 -68 -63 -33 -40 -69 -54 -71 -215 -61 -194 -133 -102 -97 -75 -74 -111 -104 -176 -170 -133
-182 -186 -190 -185 -175 -170 -156 -162 -149 -145 -144 -150 -113 -65 -55 -65 -51 -75 -281 -313 -300 -270 -208 -129 -86 -64 -48 -44 -60 -70 -77 -85 -105 -123 -197 -203 -169 -152 -243 -165 -143 -130 -231
-237 -219 -173 -145 -154 -169 -150 -150 -146 -184 -158 -97 -90 -105 -86 -139 -301 -68 -289 -262 -223 -219 -175 -128 -95 -73 -71 -82 -185 -70 -65 -86 -74 -85 -164 -298 -280 -377 -58 -377 -217 -209 -168
-526 -357 -232 -153 -162 -160 -113 -107 -96 -83 -92 -110 -127 -208 -146 -202 -353 -169 -317 -313 -248 -230 -185 -124 -92 -259 -312 -0 -0 -0 -190 -178 -164 -220 -181 -158 -259 -313 -28 -0 -269 -164 -192
-104 -200 -214 -127 -97 -35 -89 -203 -236 -174 -116 -0 -0 -0 -78 -215 -0 -272 -246 -49 -318 -254 -156 -208 -107 -244 -0 -0 -0 -0 -264 -101 -263 -259 -238 -252 -240 -201 -206 -105 -484 -288 -243
-147 -185 -186 -150 -112 -143 -95 -103 -275 -161 -169 -0 -51 -109 -13 -0 -0 -0 -0 -0 -0 -72 -94 -0 -0 -0 -0 -0 -0 -0 -0 -0 -0 -0 -57 -340 -276 -222 -210 -267 -451 -505 -137
-251 -211 -153 -142 -129 -96 -147 -289 -460 -319 -231 -247 -0 -0 -0 -0 -0 -0 -0 -0 -0 -0 -0 -0 -0 -0 -0 -0 -0 -272 -47 -163 -422 -325 -249 -232 -193 -206 -302 -30 -0 -0 -0
-196 -268 -0 -138 -87 -43 -32 -88 -225 -301 -101 -297 -348 -150 -107 -172 -0 -0 -0 -0 -0 -0 -0 -0 -0 -0 -0 -0 -54 -238 -295 -42 -190 -214 -96 -106 -89 -69 -105 -363 -0 -0 -0
-0 -0 -0 -0 -106 -53 -0 -0 -0 -0 -0 -133 -229 -328 -135 -13 -0 -0 -0 -0 -0 -0 -0 -0 -0 -242 -100 -0 -0 -0 -0 -0 -0 -0 -203 -237 -173 -304 -159 -199 -428 -0 -0
-0 -0 -0 -0 -51 -0 -0 -0 -0 -0 -0 -0 -0 -0 -0 -0 -0 -0 -0 -0 -0 -0 -0 -0 -0 -0 -0 -0 -0 -0 -0 -0 -0 -0 -0 -0 -0 -0 -124 -278 -292 -313 -0
-0 -0 -0 -0 -0 -0 -0 -0 -0 -0 -0 -0 -0 -0 -0 -0 -0 -0 -0 -0 -0 -0 -0 -0 -0 -0 -0 -0 -0 -0 -0 -0 -0 -0 -0 -0 -0 -0 -0 -6 -264 -353 -468
-0 -0 -0 -0 -0 -0 -0 -0 -0 -0 -0 -0 -0 -0 -0 -0 -0 -0 -0 -0 -0 -0 -0 -0 -0 -0 -0 -0 -0 -0 -0 -0 -0 -0 -0 -0 -0 -0 -0 -0 -0 -216 -281
-0 -0 -0 -0 -0 -0 -0 -0 -0 -0 -0 -0 -0 -0 -0 -0 -0 -0 -0 -0 -0 -0 -0 -0 -0 -0 -0 -0 -0 -0 -0 -0 -0 -0 -0 -0 -0 -0 -0 -0 -0 -0 -118
-0 -0 -0 -0 -0 -0 -0 -0 -0 -0 -0 -0 -0 -0 -0 -0 -0 -0 -0 -0 -0 -0 -0 -0 -0 -0 -0 -0 -0 -0 -0 -0 -0 -0 -0 -0 -0 -0 -0 -0 -0 -0 -0
-0 -0 -0 -0 -0 -0 -0 -0 -0 -0 -0 -0 -0 -0 -0 -0 -0 -0 -0 -0 -0 -0 -0 -0 -0 -0 -0 -0 -0 -0 -0 -0 -0 -0 -0 -0 -0 -0 -0 -0 -0 -0 -0
-0 -0 -0 -0 -0 -0 -0 -0 -0 -0 -0 -0 -0 -0 -0 -0 -0 -0 -0 -0 -0 -0 -0 -0 -0 -0 -0 -0 -0 -0 -0 -0 -0 -0 -0 -0 -0 -0 -0 -0 -0 -0 -0
-0 -0 -0 -0 -0 -0 -0 -0 -0 -0 -0 -0 -0 -0 -0 -0 -0 -0 -0 -0 -0 -0 -0 -0 -0 -0 -0 -0 -0 -0 -0 -0 -0 -0 -0 -0 -0 -0 -0 -0 -0 -0 -0
-0 -0 -0 -0 -0 -0 -0 -0 -0 -0 -0 -0 -0 -0 -0 -0 -0 -0 -0 -0 -0 -0 -0 -0 -0 -0 -0 -0 -0 -0 -0 -0 -0 -0 -0 -0 -0 -0 -0 -0 -0 -0 -0
-0 -0 -0 -0 -0 -0 -0 -0 -0 -0 -0 -0 -0 -0 -0 -0 -0 -0 -0 -0 -0 -0 -0 -0 -0 -0 -0 -0 -0 -0 -0 -0 -0 -0 -0 -0 -0 -0 -0 -0 -0 -0 -0
-0 -0 -0 -0 -0 -0 -0 -0 -0 -0 -0 -0 -0 -0 -0 -0 -0 -0 -0 -0 -0 -0 -0 -0 -0 -0 -0 -0 -0 -0 -0 -0 -0 -0 -0 -0 -0 -0 -0 -0 -0 -0 -0
Wind_Speed
16 14 11 8 7 6 6 6 7 6 7 9 10 11 9 7 6 6 6 6 6 5 5 6 7 5 5 4 4 2 3 4 4 5 2 4 4 6 8 6 6 6 5
17 16 15 12 11 10 8 7 7 7 7 8 8 8 7 7 7 7 8 7 7 7 7 7 8 5 7 6 4 6 4 4 4 10 3 3 6 4 6 7 6 6 5
16 16 16 14 11 11 9 8 7 7 7 7 8 9 8 8 7 7 7 8 7 7 7 7 8 6 6 5 6 6 4 4 4 4 8 3 4 3 3 4 6 6 6
17 15 16 16 15 14 12 12 10 7 7 7 9 10 9 8 7 7 6 7 7 7 7 7 7 7 8 7 6 9 7 6 6 4 7 8 4 5 3 4 7 3 8
17 17 17 16 15 14 12 12 11 9 9 8 8 7 7 7 7 7 7 7 7 7 7 7 7 9 12 11 5 7 6 5 6 5 5 4 6 5 4 3 5 5 8
17 18 17 15 14 14 13 13 12 11 12 8 8 9 9 7 12 13 9 7 8 8 9 8 8 8 10 12 14 15 11 8 10 7 7 8 11 7 4 4 4 3 6
17 15 15 14 14 14 14 13 12 12 9 11 10 10 11 12 14 13 11 5 5 6 6 7 8 8 10 8 11 13 13 13 14 9 8 10 10 10 5 7 5 4 4
13 12 12 12 13 13 12 13 13 10 12 11 12 13 11 8 11 9 2 4 5 5 6 6 8 11 10 8 8 8 9 8 8 7 10 13 13 14 6 6 5 5 4
8 8 8 5 8 10 12 12 11 8 8 10 8 7 7 4 5 3 4 2 3 5 6 6 7 9 10 10 8 10 13 13 10 13 14 14 17 17 7 1 5 4 3
7 6 7 7 4 4 3 5 6 6 8 0 7 8 2 4 3 7 5 2 5 5 5 4 8 3 2 5 3 6 10 12 10 13 12 9 9 9 10 9 4 5 3
7 3 10 7 10 8 5 2 2 2 10 10 12 12 6 2 3 6 8 3 5 4 4 4 4 8 7 7 4 6 12 11 12 9 9 7 6 6 5 5 6 5 3
1 2 4 2 2 7 10 6 7 5 10 11 10 11 4 1 2 1 5 7 3 3 5 4 4 8 8 9 3 11 10 9 4 6 6 7 6 6 5 1 2 3 3
5 5 5 3 2 3 5 4 5 7 6 7 7 4 3 3 4 3 4 8 8 4 5 5 8 12 12 9 12 8 10 2 4 5 7 6 4 5 2 3 3 3 2
7 7 6 3 2 1 1 1 2 4 5 4 6 4 3 4 2 1 2 3 7 5 4 2 5 9 11 9 6 2 4 2 4 4 4 4 4 4 2 3 4 4 2
7 6 6 4 4 6 6 5 4 4 4 1 2 8 4 1 2 1 1 3 3 3 5 3 3 3 3 5 4 5 4 5 4 4 4 4 4 4 3 2 3 3 3
8 7 6 5 3 4 5 3 10 6 7 10 9 5 4 4 4 3 4 7 4 2 0 1 3 3 4 5 5 5 4 5 5 4 4 4 3 4 5 5 2 3 4
6 7 4 6 5 4 3 3 3 2 4 4 6 6 5 2 1 2 4 6 6 6 2 2 3 3 3 4 4 4 3 3 4 4 5 6 6 6 6 5 4 3 4
6 7 5 4 3 3 3 3 3 2 1 2 4 4 6 6 3 4 6 3 1 1 0 2 2 2 2 3 4 4 5 5 6 6 6 5 5 6 7 7 5 6 6
8 7 6 5 5 6 5 5 3 2 2 1 1 1 6 7 6 5 1 1 1 2 2 2 2 2 2 2 2 3 4 4 5 5 5 5 6 6 7 7 7 10 6
7 13 9 6 6 7 6 6 8 5 1 2 2 4 2 2 1 1 3 3 3 2 3 4 3 2 2 1 1 2 3 3 4 4 5 5 6 5 6 8 9 8 7
4 5 10 4 5 4 4 4 4 6 5 5 4 4 9 5 5 4 3 4 4 4 5 5 4 4 3 3 2 1 2 3 3 4 4 4 5 7 7 6 7 8 8
5 5 5 4 4 4 5 4 4 5 6 5 6 2 5 4 5 5 5 5 5 5 5 5 4 4 4 4 4 3 3 3 4 3 4 4 4 5 6 7 7 7 8
4 5 5 4 4 5 5 5 5 5 5 8 6 4 4 5 5 5 4 4 5 5 5 5 5 5 5 5 5 5 5 5 4 3 4 4 5 5 5 5 7 8 8
4 4 3 3 3 4 5 5 5 6 6 5 6 4 3 4 3 5 5 4 5 5 6 6 6 8 7 6 5 5 5 5 4 4 4 3 4 5 5 5 5 8 7
4 5 5 4 3 2 4 4 5 5 5 4 4 4 3 3 4 3 2 4 5 5 8 8 7 9 11 13 11 11 10 10 8 6 3 4 5 6 5 4 5 6 7
4 5 5 5 5 5 4 4 5 6 5 5 4 3 2 4 4 5 7 5 1 5 6 4 6 10 12 12 13 14 12 12 9 9 5 4 4 4 4 5 7 4 6
Wind_Direction
189 193 193 182 193 193 185 187 183 199 215 198 194 193 195 200 199 198 213 226 226 250 244 234 252 249 263 259 249 260 236 179 243 293 262 277 287 292 304 303 289 288 296
190 190 197 198 196 194 200 195 179 202 210 182 180 183 191 205 200 203 214 217 215 230 239 229 243 241 251 250 249 256 244 240 215 283 251 273 269 280 268 289 298 305 290
190 191 195 198 196 204 205 203 195 191 210 195 185 190 193 202 204 210 210 221 227 219 227 233 246 236 253 248 244 250 248 246 226 245 287 250 276 276 296 283 284 287 285
189 194 198 199 197 200 200 207 211 196 191 206 190 197 194 196 206 214 210 220 231 237 237 231 241 242 243 248 249 253 253 252 249 242 273 283 263 293 248 270 300 278 296
189 192 198 203 204 202 195 198 206 202 204 197 194 192 200 199 206 209 217 222 223 239 244 237 233 229 228 235 223 255 243 255 264 267 268 269 270 286 256 249 273 284 292
191 198 198 199 199 204 203 201 199 203 210 191 197 198 200 205 210 208 204 214 223 229 246 252 249 251 253 247 240 238 235 239 262 267 271 264 276 272 267 256 261 299 298
194 198 200 197 198 203 203 200 205 205 199 208 204 198 207 212 210 213 217 221 247 258 258 263 270 266 258 260 262 260 261 241 232 255 257 265 277 277 257 278 234 214 259
198 195 194 196 200 202 204 205 206 204 201 201 211 214 216 218 204 221 216 224 214 237 248 254 256 271 269 262 262 260 259 257 243 218 225 258 264 272 220 239 252 250 268
69 36 351 252 200 196 207 215 213 197 204 209 211 215 203 112 108 117 119 140 230 232 224 233 248 263 270 272 273 271 277 278 270 250 252 252 254 261 254 141 257 211 268
91 96 67 30 22 4 301 249 215 208 214 266 33 30 4 153 154 158 157 187 242 238 238 252 238 174 67 39 354 305 293 287 294 294 293 272 250 253 249 208 215 228 210
343 263 148 175 134 84 331 318 292 109 78 59 62 340 315 196 172 175 199 202 245 243 240 238 195 182 195 191 236 269 273 289 295 297 295 290 286 272 256 203 212 211 186
92 65 74 42 90 151 197 191 119 138 119 103 148 223 259 282 102 165 251 253 271 251 269 278 253 236 241 256 251 262 265 264 277 288 284 280 273 277 276 214 135 97 296
49 42 62 52 53 168 229 202 129 127 148 137 164 214 215 166 225 191 290 314 303 271 288 353 328 287 294 321 279 297 265 315 295 292 275 272 263 257 145 102 74 89 86
63 34 11 28 59 139 220 162 114 144 134 179 152 182 188 147 210 298 347 297 279 287 311 308 275 263 271 262 296 340 46 314 250 256 266 283 290 308 285 178 180 181 139
41 22 6 19 71 73 51 13 49 17 28 40 192 125 131 156 233 91 295 301 314 8 319 327 330 350 353 350 8 7 19 22 6 333 332 331 324 337 327 280 187 169 188
40 16 15 25 78 88 96 78 28 87 52 72 56 45 102 118 161 162 254 284 311 11 49 10 21 5 10 4 2 347 18 357 346 328 316 306 315 327 315 315 236 205 195
36 5 17 35 31 41 42 42 60 99 101 82 95 85 45 148 17 34 21 3 65 104 1 16 51 22 5 353 351 348 337 325 314 330 334 340 336 322 316 297 294 226 224
21 25 27 13 14 44 41 25 16 54 12 317 234 223 223 223 261 70 24 24 81 298 46 57 47 43 24 0 359 349 342 349 353 346 341 336 329 335 322 312 310 291 239
19 11 7 358 357 9 16 5 4 3 311 274 120 277 237 246 284 301 107 172 195 214 135 128 138 100 36 9 5 345 339 346 339 338 345 339 337 331 322 317 312 311 288
14 12 28 33 30 29 22 16 355 333 250 206 206 238 170 104 260 251 226 193 185 178 153 161 164 163 153 188 337 330 323 329 333 339 339 335 326 326 324 326 320 321 317
2 1 359 12 27 22 20 15 343 350 300 277 223 217 191 180 207 217 244 208 196 192 182 178 179 184 182 186 199 230 287 304 323 327 328 322 324 325 324 319 320 324 315
7 352 348 348 4 16 360 356 348 340 336 306 291 283 170 196 200 218 215 222 201 195 194 178 181 193 193 191 191 196 236 278 296 305 314 318 319 314 322 325 328 324 333
1 357 356 357 6 2 2 344 338 336 323 333 290 264 228 215 229 229 223 221 195 197 196 187 186 199 190 193 188 187 195 231 236 228 282 312 315 308 309 320 326 330 330
350 339 342 347 351 355 342 333 321 316 308 316 322 13 327 290 285 279 266 231 191 193 192 198 194 191 184 193 197 205 213 227 221 234 237 268 299 314 315 312 319 320 317
326 324 318 320 296 274 296 311 304 313 307 311 332 2 357 328 6 313 268 287 238 199 201 205 204 201 193 190 195 199 206 213 210 203 214 248 266 286 290 287 295 309 316
264 267 267 296 322 321 313 293 286 289 283 286 285 280 321 325 24 341 328 310 327 261 231 228 228 222 194 194 197 194 198 209 213 210 203 221 243 289 310 300 302 300 299